Princess Juliana International, Saint Maartin

2:16 AM AST on August 29, 2015 (GMT -0400)
Princess Juliana International | | Change Station
CLOSE
Current Station
Airport
Location: Juliana Airport,
Elevation: 13 ft
Nearby Weather Stations

Elev 13 ft 18.04 °N, 63.11 °W | Updated 1 hour ago

Partly Cloudy
Partly Cloudy
82 °F
Feels Like 88 °F
N
14
Wind Variable Wind from East

Today
High -- | Low -- °F
--% Chance of Precip.
Yesterday
High -- | Low -- °F
Precip. -- in
5:57 AM 6:29 PM
Full, 100% visible
Pressure 30.01 in
Visibility 6.2 miles
Clouds Few 1900 ft
Heat Index 88 °F
Dew Point 73 °F
Humidity 74%
Rainfall 0.00 in
Snow Depth Not available.
UV 0 out of 12
Pollen Not available.
Air Quality Not available.
Flu Activity Not available.
METAR TNCM 290500Z 09012KT 060V120 9999 FEW019 28/23 Q1016 A3001
Pressure 30.01 in
Visibility 6.2 miles
Clouds Few 1900 ft
Heat Index 88 °F
Dew Point 73 °F
Humidity 74%
Rainfall 0.00 in
Snow Depth Not available.
UV 0 out of 12
Pollen Not available.
Air Quality Not available.
Flu Activity Not available.
METAR TNCM 290500Z 09012KT 060V120 9999 FEW019 28/23 Q1016 A3001

10-Day Weather Forecast

×

Almanac

Astronomy

Aug. 29, 2015 Rise Set
Actual Time
Civil Twilight
Nautical Twilight
Astronomical Twilight
Moon
Length of Visible Light
Length of Day
Tomorrow will be .
, % of the Moon is Illuminated

Today's Extremes

Country Highs Country Lows

Community

WunderPhotos

Upload Photos

1,850,622 photos uploaded!

WunderBlogs® & News

Nearby

Air Quality

  Air Quality AQ Index Pollutant
Not available.

Snow Depth

Station Depth Elevation

Earthquake Activity

City Distance Mag. Time & Date
Minimum magnitude displayed is 2.5.

Coastal Water Temperatures

Place Temperature

Stations

Nearby Weather Stations

Station Location Temp. Windchill Dew Point Humidity Wind Precip. Elev Updated Type